Mobile, AL

12:54 AM CDT on March 24, 2017 (GMT -0500)
Mobile Regional

Weather History for KMOB - October, 2014

Change the Weather History Date:

Sunday, October 5, 2014

  Actual Average Record
Temperature  
Mean Temperature 61 °F 72 °F  
Max Temperature 75 °F 82 °F 93 °F (1954)
Min Temperature 46 °F 61 °F 44 °F (2010)
Degree Days  
Heating Degree Days 4 1  
Month to date heating degree days 10 1  
Since 1 July heating degree days 10 3  
Cooling Degree Days 0 7  
Month to date cooling degree days 28 39  
Year to date cooling degree days 2190 2343  
Growing Degree Days 10 (Base 50)    
Moisture  
Dew Point 47 °F    
Average Humidity 65    
Maximum Humidity 100    
Minimum Humidity 29    
Precipitation  
Precipitation 0.00 in 0.13 in 3.31 in (1934)
Month to date precipitation 1.30 0.65  
Year to date precipitation 64.23 52.92  
Sea Level Pressure  
Sea Level Pressure 30.05 in    
Wind  
Wind Speed 4 mph (SSE)    
Max Wind Speed 14 mph    
Max Gust Speed 18 mph    
Visibility 10 miles    
Events      
T = Trace of Precipitation, MM = Missing Value Source: NWS Daily Summary

Daily Weather History Graph

Daily Weather History Graph

Search for Another Location

Airport or City:

Trip Planner

Search our weather history database for the weather conditions in past years. The results will help you decide how hot, cold, wet, or windy it might be!

Date:

Astronomy

Oct. 05, 2014 Rise Set
Actual Time 6:48 AM CDT 6:33 PM CDT
Civil Twilight 6:24 AM CDT 6:57 PM CDT
Nautical Twilight 5:56 AM CDT 7:25 PM CDT
Astronomical Twilight 5:28 AM CDT 7:53 PM CDT
Moon 4:40 PM CDT (10/5) 3:38 AM CDT (10/5)
Length of Visible Light 12h 32m
Length of Day
11h 44m
Waxing Gibbous, 89% of the Moon is Illuminated
Oct 5
Waxing Gibbous
Oct 8
Full
Oct 15
Last Quarter
Oct 23
New
Oct 30
First Quarter

Hourly Weather History & Observations

Time (CDT) Temp. Dew Point Humidity Pressure Visibility Wind Dir Wind Speed Gust Speed Precip Events Conditions
12:56 AM 48.0 °F 46.9 °F 96% 30.05 in 10.0 mi Calm Calm - N/A   Clear
1:56 AM 48.0 °F 46.9 °F 96% 30.04 in 10.0 mi Calm Calm - N/A   Clear
2:56 AM 46.0 °F 46.0 °F 100% 30.03 in 10.0 mi Calm Calm - N/A   Clear
3:56 AM 46.9 °F 46.0 °F 97% 30.04 in 10.0 mi Calm Calm - N/A   Clear
4:56 AM 46.4 °F 46.4 °F 100% 30.06 in 10.0 mi Calm Calm - N/A   Clear
5:56 AM 46.9 °F 46.9 °F 100% 30.07 in 10.0 mi Calm Calm - N/A   Partly Cloudy
6:56 AM 46.9 °F 46.0 °F 97% 30.07 in 10.0 mi Calm Calm - N/A   Clear
7:56 AM 54.0 °F 51.1 °F 90% 30.08 in 10.0 mi Calm Calm - N/A   Clear
8:56 AM 63.0 °F 46.9 °F 56% 30.10 in 10.0 mi East 3.5 mph - N/A   Clear
9:56 AM 66.9 °F 42.1 °F 40% 30.10 in 10.0 mi SE 4.6 mph - N/A   Partly Cloudy
10:56 AM 70.0 °F 41.0 °F 35% 30.09 in 10.0 mi East 8.1 mph - N/A   Partly Cloudy
11:56 AM 71.1 °F 44.1 °F 38% 30.09 in 10.0 mi ESE 5.8 mph - N/A   Partly Cloudy
12:56 PM 72.0 °F 41.0 °F 33% 30.06 in 10.0 mi Variable 6.9 mph - N/A   Partly Cloudy
1:56 PM 73.0 °F 42.1 °F 33% 30.03 in 10.0 mi South 9.2 mph - N/A   Scattered Clouds
2:56 PM 75.0 °F 41.0 °F 29% 30.02 in 10.0 mi South 11.5 mph - N/A   Scattered Clouds
3:56 PM 73.0 °F 41.0 °F 31% 30.01 in 10.0 mi SW 6.9 mph - N/A   Partly Cloudy
4:56 PM 73.0 °F 48.0 °F 41% 30.01 in 10.0 mi SSE 9.2 mph - N/A   Partly Cloudy
5:56 PM 70.0 °F 50.0 °F 49% 30.01 in 10.0 mi South 8.1 mph - N/A   Clear
6:56 PM 64.0 °F 52.0 °F 65% 30.01 in 10.0 mi South 4.6 mph - N/A   Clear
7:56 PM 63.0 °F 52.0 °F 67% 30.01 in 10.0 mi SSE 5.8 mph - N/A   Clear
8:56 PM 62.1 °F 53.1 °F 72% 30.03 in 10.0 mi SSE 3.5 mph - N/A   Partly Cloudy
9:56 PM 62.1 °F 53.1 °F 72% 30.04 in 10.0 mi Calm Calm - N/A   Clear
10:56 PM 61.0 °F 54.0 °F 78% 30.03 in 10.0 mi Calm Calm - N/A   Clear
11:56 PM 60.1 °F 55.9 °F 86% 30.02 in 10.0 mi SSE 5.8 mph - N/A   Clear